Regional Weather Roundup
Issued by NWS Lake Charles, LA

Home | Current Version | Previous Version | Text Only | Print | Product List | Glossary On
Versions: 1 2 3 4 5 6 7 8 9 10 11 12 13 14 15 16 17 18 19 20 21 22 23 24 25 26 27 28 29 30 31 32 33 34 35 36 37 38 39 40 41 42 43 44 45 46 47 48 49 50
000
ASUS44 KLCH 252310
RWRLCH
RWRLCH
REGIONAL WEATHER ROUNDUP
NATIONAL WEATHER SERVICE LAKE CHARLES LA
500 PM CST SUN JAN 25 2015

Note: "fair" indicates few or no clouds below 12,000 feet with no
significant weather and/or obstructions to visibility.


ACROSS SOUTHEAST TEXAS

CITY           SKY/WX    TMP DP  RH WIND       PRES   REMARKS
BEAUMONT       CLEAR     67  43  41 W12       29.95F
BEAUMONT CITY    N/A     67  44  44 W13       29.97S
ORANGE         CLEAR     68  40  36 W9G18     29.96R
JASPER         CLEAR     66  34  30 W12G21    29.97S
$$

ACROSS CENTRAL LOUISIANA

CITY           SKY/WX    TMP DP  RH WIND       PRES   REMARKS
LEESVILLE      CLEAR     65  39  38 W14G30    29.92R
FULLERTON        N/A     66  38  35 VRB5      29.90R
ALEXANDRIA INT PTCLDY    65  40  39 W10       29.89R
ESLER FIELD    CLEAR     65  36  34 NW10G21   29.89R
DERIDDER         N/A     66  38  35 W14       29.95R
OAKDALE        CLEAR     67  38  34 W10G18    29.91R
OPELOUSAS        N/A     64  47  55 W9        29.89R
$$

ACROSS SOUTHWEST AND SOUTH CENTRAL LOUISIANA

CITY           SKY/WX    TMP DP  RH WIND       PRES   REMARKS
SULPHUR        CLEAR     68  40  36 W12G17    29.93S
LAKE CHARLES   CLEAR     66  44  45 W10       29.92F
CHENNAULT INT  NOT AVBL
CAMERON PHI    CLEAR     57  50  77 W12G23    29.97F
DEQUINCY         N/A     66  41  39 W9G16     29.93S
JENNINGS         N/A     63  49  60 SW9       29.91S
LAFAYETTE      CLEAR     61  46  57 SW15G25   29.89F
NEW IBERIA     CLEAR     61  45  55 SW17G23   29.91F
ABBEVILLE        N/A     60  46  59 SW14G23   29.91F
PATTERSON      CLEAR     59  45  58 W22G31    29.92F
SALT POINT       N/A     57  50  77 SW12G21   29.92F
$$

SELECTED SITES ACROSS THE REGION

CITY           SKY/WX    TMP DP  RH WIND       PRES   REMARKS
HOUSTON BUSH   PTCLDY    66  43  43 W9        30.02S
HOUSTON HOBBY  MOCLDY    68  40  35 W13       30.03R
GALVESTON      CLEAR     63  49  60 W10       30.02S
COLLEGE STAT   CLEAR     67  26  21 NW15G28   30.06F
CONROE         CLEAR     66  43  43 W9        30.02S
HUNTSVILLE     CLEAR     68  32  26 NW15G23   30.02S
LUFKIN         CLEAR     68  28  22 NW13      29.98S
SHREVEPORT     PTCLDY    62  30  29 NW18G29   29.94R
MONROE         MOCLDY    62  35  36 W20       29.88R
NATCHEZ MS     CLEAR     64  37  36 W14G23    29.88R
BATON ROUGE    CLEAR     64  39  39 SW16G28   29.86F
N.O. INTL ARPT PTCLDY    63  38  39 SW23G30   29.87F
SLIDELL        CLEAR     63  39  41 SW12G21   29.85F
$$

MARINE REPORTS

STATION/POSITION TIME  TEMP    WIND        PRES    VSBY  WAVE
                       AIR SEA DIR/SP/G                  HT/PER
                 (UTC) (F)     (DEG/KT/KT) (MB)    (MI)  (FT/S)
BUOY 30 S HIGH I 2300   57 55  240/ 10/ 12 1015.6F         4/ 6
SEA RIM ST PARK  2300   65     260/ 10/ 12 1015.3S
PORT ARTHUR      2300      53  280/ 13/ 20 1014.2R
SABINE PASS N    2300   66 53  260/  9/ 17 1014.5F
TEXAS POINT      NOT AVBL
CALCASIEU PASS   2300   57 53  260/ 14/ 20   N/A
LK CHARLES BEACH 2300   67 52              1013.0F
MARSH ISLAND     NOT AVBL
FRESH WATER LOCK 2300   58 54  240/ 14/ 21 1013.7F
AMERADA PASS     2300   56 47  230/  8/ 13 1013.6F
$$



USA.gov is the U.S. government's official web portal to all federal, state and local government web resources and services.